Wind_Speed
27 28 29 29 29 28 27 27 27 26 26 25 25 28 32 36 38 36 35 34 33 33 32 32 32 32 32 32 32 32 32 31 31 30 29 28 28 27 27 27 26 26 25 23 20 18 18 19 21 21 21 21 20 20 18 16 13 10 6 5 6 7 8 9 9 6 3 2 3 2 1 2 4 6 8 9 7 6 5 5 4 4 5 6 8 9
26 27 28 28 28 28 28 28 28 27 27 26 27 30 35 38 38 37 35 34 34 34 33 33 33 33 33 33 33 33 32 32 32 31 30 29 28 28 28 27 27 26 24 22 19 17 17 18 19 20 20 19 19 18 17 15 12 9 8 9 10 11 11 11 10 9 6 5 6 6 6 5 5 6 7 8 8 8 7 7 5 4 4 5 6 7
26 27 29 29 29 29 30 29 29 28 27 27 28 32 36 38 38 37 36 35 35 34 34 34 34 34 34 34 34 34 34 33 32 31 31 30 29 29 28 28 27 25 23 20 17 16 16 17 18 19 18 18 18 17 15 13 11 11 12 13 14 14 13 12 11 10 9 8 8 7 7 8 7 7 7 8 8 8 8 7 6 5 5 6 6 6
27 29 30 31 31 31 31 30 29 28 28 28 29 33 37 39 38 37 36 36 35 35 35 34 34 34 35 35 35 35 35 34 33 32 31 31 30 29 29 28 27 25 22 19 16 15 15 16 17 17 17 17 17 16 14 12 11 13 15 16 17 16 14 13 12 11 10 10 10 9 7 7 7 8 8 8 8 8 8 7 6 5 5 5 5 5
29 31 32 32 32 32 32 31 30 29 29 29 31 35 38 39 38 37 36 36 36 35 35 35 35 35 36 36 36 36 36 35 34 33 32 31 31 30 30 29 27 25 22 19 17 16 15 15 16 16 16 16 16 14 13 12 12 14 17 18 19 17 15 14 12 10 9 10 11 12 11 9 8 7 7 8 8 8 8 8 7 7 7 7 6 5
32 33 33 33 33 33 32 31 31 30 30 31 33 36 39 39 38 36 36 36 35 35 35 35 36 36 37 37 37 37 36 35 34 33 32 32 31 31 30 29 28 26 23 20 18 17 16 15 15 16 16 15 15 13 12 12 13 15 17 19 20 19 17 15 13 11 9 9 10 12 13 13 12 11 9 8 7 8 8 8 9 9 9 9 8 8
34 35 34 34 34 33 32 32 32 32 32 32 34 37 39 38 36 35 35 35 35 35 35 35 36 36 37 37 37 36 36 35 34 33 33 33 32 32 31 30 28 26 24 21 19 17 16 16 15 16 15 15 14 13 12 12 13 15 17 19 19 19 17 15 13 12 11 10 10 11 13 14 15 15 13 12 11 9 9 9 9 10 10 10 10 10
36 36 36 35 34 33 33 34 33 33 32 33 35 37 38 36 35 33 33 33 33 34 34 34 35 36 37 37 37 36 35 35 34 34 33 33 33 32 31 30 28 26 24 21 18 17 16 15 15 15 14 14 13 13 12 12 13 15 16 17 18 17 16 15 13 12 12 11 10 10 11 13 14 14 14 13 13 12 12 11 11 11 12 12 13 13
37 37 36 35 34 34 34 35 34 33 32 34 36 37 36 34 33 32 31 31 32 32 33 34 35 36 37 37 37 37 36 36 35 34 33 33 33 32 30 29 28 26 23 20 17 16 15 14 14 14 14 13 13 13 13 13 14 15 15 16 16 16 15 14 13 13 13 11 10 9 10 11 12 12 11 10 10 11 11 11 11 12 12 14 14 15
37 36 35 34 33 33 34 34 33 32 32 34 36 36 35 32 31 30 30 30 30 31 32 33 35 36 37 38 38 38 37 36 35 34 34 33 32 31 29 28 26 24 21 19 17 16 14 14 14 14 13 14 14 14 13 14 14 14 14 14 14 14 13 13 13 12 12 11 9 8 8 9 10 10 9 8 7 7 8 9 10 10 11 12 13 14
37 35 33 32 32 33 34 33 32 31 32 34 36 36 34 32 30 29 29 29 29 30 31 33 35 37 38 39 38 38 37 35 35 35 35 33 31 29 28 26 25 23 20 18 16 15 14 14 14 14 14 15 15 14 14 13 13 13 13 12 12 12 11 11 11 11 11 10 9 8 8 8 8 8 8 7 6 6 6 7 8 9 9 10 11 12
38 35 33 32 32 33 34 33 31 31 32 33 34 34 34 33 31 30 29 29 29 30 31 33 35 37 38 38 38 37 37 35 35 34 34 32 30 28 26 24 23 21 19 17 16 15 15 15 15 16 16 16 15 15 14 13 13 12 11 10 10 9 9 9 9 9 10 9 9 9 8 8 7 7 7 8 7 7 7 7 7 8 8 9 9 10
38 35 32 32 33 34 35 33 32 31 32 34 35 35 34 34 33 31 30 29 29 30 32 34 36 37 37 37 37 37 36 35 34 32 30 29 27 25 24 22 21 19 18 16 16 16 16 16 17 18 18 17 16 15 14 13 13 12 11 10 9 8 7 7 8 9 9 9 9 9 9 8 7 7 7 8 8 8 8 8 8 9 9 9 9 9
37 34 33 33 35 36 37 34 32 31 32 34 36 36 36 35 34 32 31 30 30 31 33 35 36 36 36 36 36 36 35 34 32 29 27 25 24 23 21 19 19 18 17 16 16 17 18 19 19 20 19 18 17 15 14 13 13 12 12 10 9 7 7 7 7 8 9 10 10 10 10 9 8 8 7 8 8 8 9 9 10 10 10 11 11 10
37 34 34 35 37 39 38 34 32 31 32 34 36 37 36 35 34 33 31 31 31 32 34 35 36 36 36 35 35 35 34 32 29 26 25 24 23 22 20 18 17 17 17 16 17 19 20 21 22 22 20 19 17 16 14 13 13 13 12 12 10 9 8 7 8 9 10 10 11 10 10 9 9 9 8 8 8 8 9 10 10 11 11 11 11 11
37 36 36 38 40 40 37 33 31 31 33 35 37 38 38 37 36 34 32 32 32 33 34 35 36 36 35 35 35 34 32 30 27 26 24 23 23 21 20 17 16 16 17 17 19 21 22 23 23 22 21 19 18 16 15 14 13 13 13 13 12 11 10 9 9 10 10 11 11 11 11 10 10 9 9 9 9 10 10 10 11 11 11 11 11 11
38 37 38 39 41 40 37 33 31 32 33 36 38 39 40 39 38 36 35 33 33 34 35 36 37 37 37 36 35 34 32 28 26 25 24 22 21 20 19 17 16 16 17 18 20 23 24 25 24 23 21 20 19 18 17 15 14 14 14 14 14 13 12 11 10 10 11 11 12 11 11 10 10 10 10 10 10 11 11 11 11 11 11 11 11 11
39 39 39 41 41 40 36 33 32 33 34 36 38 40 41 41 40 38 36 35 35 35 36 37 38 39 40 39 37 35 33 28 26 24 23 21 20 19 18 17 16 16 18 19 21 23 25 26 25 23 21 21 21 20 19 17 16 15 15 16 16 14 13 11 10 10 11 11 11 11 11 10 10 10 10 11 11 12 12 12 12 12 11 11 11 11
40 40 41 42 41 39 37 35 34 34 36 37 39 42 43 43 41 39 37 37 37 37 36 37 38 40 42 42 40 37 33 29 25 23 22 20 19 19 18 16 16 17 18 20 22 23 25 25 24 22 21 21 21 21 20 19 17 16 16 17 16 15 13 11 10 10 10 11 11 11 11 11 10 10 11 12 13 13 14 13 13 12 12 12 12 12
41 41 42 42 42 41 39 38 37 36 37 38 41 44 44 43 40 39 39 40 39 37 37 38 39 41 42 41 38 35 31 28 25 23 21 20 19 18 18 17 17 18 19 21 22 24 25 24 23 21 21 21 21 21 20 19 18 17 17 17 16 14 12 10 9 9 10 11 11 11 11 11 11 12 12 13 14 15 15 14 14 13 13 13 13 13
41 42 42 43 43 43 42 40 38 38 38 40 43 45 45 42 39 38 39 40 39 38 38 40 41 41 40 38 34 31 28 25 23 22 21 20 19 18 18 18 19 20 21 22 23 24 25 24 23 22 22 22 22 21 20 18 18 17 17 16 15 14 11 10 9 10 10 11 12 12 12 13 13 13 14 15 15 15 15 15 14 14 14 14 14 13
40 41 41 42 43 44 42 40 39 39 40 43 46 46 44 41 38 38 39 39 40 41 42 42 41 40 37 33 29 26 25 23 22 21 21 20 19 19 20 20 21 22 23 23 24 25 26 25 24 24 24 23 22 21 20 19 18 17 17 16 15 13 11 10 10 10 11 12 13 14 14 14 15 15 16 16 16 16 15 15 15 15 14 14 14 14
40 40 41 42 43 43 41 40 40 41 42 45 45 44 41 38 37 37 38 40 42 43 43 41 39 36 32 28 25 23 23 22 21 21 20 21 21 21 21 22 23 23 24 25 25 26 26 26 25 25 25 24 23 22 20 19 18 18 17 16 15 13 11 10 10 11 12 13 14 15 16 16 17 17 17 16 16 16 15 15 15 15 15 15 15 15
41 42 43 43 42 41 40 40 40 42 43 43 42 39 37 35 35 36 38 40 42 42 41 38 35 31 27 25 23 22 22 22 21 21 21 22 22 22 22 23 24 25 25 25 26 26 26 26 25 24 24 24 24 22 21 19 18 18 17 16 14 12 11 11 12 12 13 15 16 17 18 18 18 17 17 16 16 16 15 15 16 16 16 16 16 15
44 44 44 43 41 39 39 39 40 41 41 40 38 36 34 34 35 37 38 39 39 39 37 34 30 27 26 25 24 23 23 22 22 22 22 22 22 22 23 24 25 25 25 25 26 26 26 25 24 23 23 24 23 22 20 19 18 17 16 15 14 13 12 13 13 14 15 16 18 19 19 19 18 18 17 17 16 16 16 16 16 16 15 15 15 15
46 46 44 41 39 38 39 39 39 39 39 37 35 34 34 35 37 38 38 38 38 36 34 31 29 27 26 25 25 24 24 23 23 23 23 22 23 23 24 25 26 26 26 26 26 26 26 25 24 24 23 23 22 21 20 19 18 17 16 15 14 13 14 15 16 16 17 18 19 20 20 19 18 18 17 17 16 16 15 15 14 14 14 14 14 14
46 45 42 39 37 37 38 38 37 36 35 34 33 34 35 37 37 37 37 37 37 35 33 31 29 28 27 26 25 25 24 24 24 23 23 22 23 24 25 25 26 26 26 26 26 26 26 26 26 25 24 23 22 20 19 18 17 16 16 15 15 15 16 17 18 19 19 20 20 20 20 19 18 17 17 16 16 15 15 14 14 14 13 13 13 13
44 42 40 37 35 35 35 35 34 33 32 31 32 34 35 36 36 36 37 37 36 35 33 32 30 30 28 27 26 25 25 25 25 24 23 23 23 24 25 26 26 27 27 27 27 27 26 26 25 25 24 23 21 20 19 18 18 17 17 16 17 17 18 19 20 20 21 21 21 20 19 18 18 17 17 16 16 16 16 15 15 15 15 15 15 15
41 39 38 36 33 32 32 31 31 30 30 30 31 33 34 34 34 35 36 36 36 35 33 32 31 30 29 27 25 25 25 25 25 25 24 23 24 25 25 26 27 28 28 28 27 27 26 25 24 23 23 22 21 19 19 19 18 18 18 19 19 20 20 21 22 22 22 21 20 19 19 18 18 17 17 17 16 16 16 15 15 15 15 15 15 16
39 37 36 35 33 31 30 30 30 30 29 29 30 31 31 31 31 33 35 36 36 35 33 32 30 28 27 26 26 26 26 26 26 25 25 25 25 25 25 26 27 28 28 28 27 27 26 25 24 23 23 22 21 20 19 20 20 20 20 21 21 22 22 22 22 22 21 20 19 19 18 18 18 17 17 17 16 16 16 16 16 16 16 16 16 16
37 36 35 33 32 31 31 31 31 30 30 30 30 30 30 30 31 32 33 34 33 32 31 29 27 26 26 26 28 29 29 27 26 26 25 26 26 26 26 27 27 28 28 28 27 27 27 26 25 25 23 22 22 21 21 21 22 22 22 23 23 23 23 22 21 21 20 19 19 18 18 18 17 17 17 17 17 17 16 16 16 16 16 17 17 17
36 35 35 34 34 33 33 33 33 33 33 33 32 32 32 32 33 32 31 30 29 27 26 25 24 24 24 25 27 28 28 27 27 26 26 26 26 26 26 27 27 27 27 27 27 27 26 27 26 25 24 23 23 23 23 23 23 23 23 23 23 22 22 21 20 20 19 19 18 18 18 18 17 17 17 17 17 17 17 17 17 17 17 18 18 18
37 37 37 37 36 36 36 36 36 36 36 35 35 35 35 35 34 32 29 27 25 23 22 21 21 23 24 25 25 24 25 25 26 26 26 26 25 25 26 26 26 26 26 26 26 27 27 27 26 25 24 24 24 24 24 24 24 23 23 22 22 21 21 20 20 19 19 18 18 18 18 18 18 18 18 18 18 18 18 18 18 18 18 18 18 18
39 39 39 39 38 38 38 38 38 38 38 38 37 37 36 35 33 31 28 26 24 22 21 20 21 22 24 24 24 23 23 24 25 25 25 25 25 24 25 26 26 26 26 26 26 26 26 25 25 24 24 24 24 24 24 23 23 23 22 21 21 20 20 19 19 19 18 18 18 18 18 18 18 18 18 18 18 18 18 18 18 18 18 18 18 18
41 41 41 40 40 39 38 38 38 39 39 38 38 37 35 33 31 29 28 26 25 23 22 21 21 21 22 23 23 23 23 24 24 24 25 25 24 24 24 25 26 26 26 26 26 26 25 24 23 23 23 23 23 23 23 22 22 21 21 20 20 20 19 19 19 18 18 18 18 18 18 18 18 18 18 18 17 17 17 17 17 17 18 17 17 17
43 42 42 41 41 40 40 39 39 39 38 37 36 34 32 31 29 28 27 26 25 25 24 23 22 21 21 21 21 21 22 23 23 24 24 24 23 23 23 24 24 25 25 25 25 25 24 23 22 21 21 21 21 22 21 21 20 20 20 20 19 19 19 19 18 18 18 18 17 17 17 17 17 17 17 17 17 16 16 16 16 16 16 16 16 17
43 43 42 42 42 41 40 40 39 38 36 34 33 31 30 29 28 27 26 26 26 25 25 25 24 23 22 21 21 21 21 22 22 23 23 23 22 22 22 22 22 23 23 23 23 23 23 22 21 21 20 20 20 20 20 19 19 19 19 19 19 18 18 18 18 17 17 17 17 17 16 16 16 16 16 16 15 15 15 15 15 15 15 15 15 15
44 44 43 42 41 41 39 38 37 35 34 32 31 30 29 28 27 26 26 25 25 25 25 25 25 24 24 23 22 21 21 21 22 22 22 22 22 21 21 21 21 21 21 21 21 20 20 20 20 20 20 20 19 19 18 18 18 18 18 18 18 18 17 17 17 16 16 16 16 15 15 15 15 15 15 14 14 14 14 14 14 13 13 14 14 14
46 45 43 42 40 39 38 36 35 34 32 32 31 30 29 28 27 27 26 25 24 24 24 24 24 24 24 24 23 22 22 21 21 21 21 21 21 21 21 20 20 20 20 20 19 19 19 19 19 19 19 19 18 18 18 17 17 18 18 17 17 17 16 16 15 15 15 15 15 14 14 14 14 13 13 13 13 13 12 12 12 12 12 12 13 13
46 45 43 41 39 37 36 35 34 33 32 31 31 30 29 29 28 27 26 25 25 24 24 23 23 23 23 23 23 22 22 21 21 21 21 21 21 21 21 20 20 19 19 19 19 19 18 18 18 18 17 17 16 16 16 17 17 17 16 16 16 16 15 14 14 14 14 14 14 13 13 13 13 12 12 12 12 12 11 11 11 11 11 11 11 12
46 44 42 40 38 36 35 34 33 32 32 32 31 30 30 29 28 28 27 26 25 24 24 23 23 23 23 22 22 21 21 21 20 20 20 20 20 20 20 20 19 19 19 18 18 18 18 18 17 17 16 16 15 15 16 16 16 16 15 15 15 15 14 13 13 13 13 13 13 12 12 12 12 12 11 11 11 11 11 10 10 10 10 10 10 11
44 42 41 39 37 35 34 33 33 32 32 32 31 30 29 28 28 27 27 26 26 25 24 23 23 23 22 22 21 21 20 20 20 20 19 19 19 19 19 19 19 18 18 18 18 17 17 17 16 16 15 15 15 15 15 15 15 15 14 14 14 13 13 13 12 12 12 12 12 12 11 11 11 11 11 10 10 10 10 10 9 9 9 9 10 10
41 40 38 37 35 34 33 33 33 33 32 31 30 29 28 27 26 26 26 25 25 25 24 23 23 22 22 22 21 21 20 20 19 19 19 18 18 18 18 18 18 18 17 17 17 17 16 16 15 15 15 15 14 14 14 14 14 14 14 13 13 13 13 12 12 12 11 11 11 11 11 11 11 10 10 10 10 9 9 9 9 9 9 9 9 9
38 37 36 35 35 34 34 34 33 33 32 30 29 28 27 26 25 24 24 24 24 24 23 23 22 22 22 21 21 21 20 20 19 19 18 18 18 17 17 17 17 17 17 17 16 16 16 15 15 15 14 14 14 14 14 14 13 13 13 13 13 13 13 12 12 11 11 11 11 11 11 10 10 10 10 10 9 9 9 8 8 8 8 8 8 8
36 36 36 35 35 35 35 34 33 32 31 30 29 28 27 26 24 23 23 23 23 22 22 22 22 21 21 20 20 20 20 19 19 18 18 18 17 17 17 17 17 16 16 16 16 15 15 14 14 14 14 14 13 13 13 13 13 13 13 13 12 12 12 12 12 11 11 11 11 10 10 10 10 10 10 9 9 8 8 8 8 8 8 8 8 8
36 36 37 36 36 35 35 34 33 32 31 30 29 28 27 26 25 23 22 22 22 22 22 21 21 20 20 20 20 19 19 19 19 18 18 17 17 17 17 16 16 16 16 15 15 15 14 14 14 13 13 13 13 13 13 13 13 13 13 13 12 12 12 12 12 11 11 11 10 10 10 10 9 9 9 9 8 8 8 8 7 7 7 7 8 8
36 37 37 37 36 36 35 34 33 32 31 30 29 28 27 26 25 24 23 22 21 21 21 21 20 19 19 19 19 19 19 19 19 18 18 18 17 17 17 16 16 16 15 15 14 14 14 14 13 13 13 13 13 13 12 12 12 12 12 12 12 12 12 12 11 11 11 10 10 10 9 9 9 9 9 9 8 8 8 8 8 7 7 7 7 8
37 37 37 37 37 36 35 34 33 32 31 30 29 28 27 26 25 24 23 22 21 21 20 20 20 19 19 19 18 18 18 18 18 18 18 18 17 17 17 16 16 15 15 14 14 14 13 13 13 12 12 12 12 12 12 12 12 12 12 12 12 12 12 11 11 11 10 10 10 10 9 9 9 9 9 9 9 9 8 8 8 8 7 7 7 7
36 36 36 36 36 35 35 33 32 31 30 30 29 28 26 25 24 23 22 21 20 20 19 20 20 19 19 19 19 18 18 18 18 18 18 17 17 17 16 16 15 15 14 14 13 13 13 12 12 12 12 11 11 11 11 11 11 11 11 11 11 11 11 11 11 11 10 10 10 10 10 9 9 9 9 9 9 9 9 8 8 8 8 7 7 7
35 35 35 35 35 34 34 33 32 31 30 29 28 27 26 25 23 22 21 21 20 19 19 19 19 19 19 19 19 18 18 18 17 17 17 17 17 16 16 15 15 14 14 13 13 12 12 12 12 12 11 11 11 10 10 11 11 11 11 11 11 11 11 11 11 11 11 10 10 10 10 10 10 10 9 9 10 10 10 9 9 8 8 7 7 7
34 34 34 34 34 33 32 32 31 30 29 28 27 26 25 24 23 22 21 20 20 20 19 19 18 18 18 18 18 18 18 17 17 17 17 16 16 16 15 15 14 14 14 13 13 13 12 12 11 11 11 11 11 10 10 10 11 11 11 11 11 11 11 11 11 11 11 11 11 10 10 10 10 9 9 9 9 9 10 10 9 9 8 8 7 7
Wind_Direction
229 224 216 209 205 204 207 209 212 214 217 220 226 232 238 241 242 241 242 242 242 243 245 245 245 245 244 245 245 247 248 250 252 253 254 254 253 253 252 252 253 254 257 259 263 270 278 284 285 284 282 282 284 285 286 282 272 255 234 228 223 217 215 218 221 223 210 164 154 161 166 182 183 184 186 190 196 208 228 238 238 229 219 218 225 234
225 217 208 202 200 202 207 210 213 216 219 222 228 234 238 240 240 241 241 242 242 243 245 245 246 245 245 245 246 247 249 250 251 252 253 252 252 251 251 251 252 253 255 258 262 268 276 282 282 281 280 281 283 284 282 276 260 233 200 192 193 197 199 205 212 214 206 187 168 155 149 161 183 197 203 208 215 226 238 242 238 228 217 216 222 231
218 209 201 199 200 204 208 212 214 217 220 223 229 235 239 240 240 240 241 242 243 244 244 245 246 246 246 246 247 248 249 249 250 251 251 250 250 250 250 250 251 252 254 257 261 267 274 279 280 279 279 281 283 282 278 267 245 215 192 192 196 199 199 203 207 207 203 199 193 177 158 156 166 182 201 215 223 228 233 235 233 225 216 210 211 218
212 205 201 201 203 206 210 213 216 218 221 224 230 236 240 241 240 241 241 242 243 244 244 245 246 247 247 248 248 248 248 248 248 248 248 248 248 248 248 249 249 250 252 255 259 265 272 277 279 279 280 282 282 279 272 257 233 208 193 194 198 202 204 206 209 208 202 202 207 208 195 174 165 167 178 195 211 220 225 224 218 207 196 188 187 195
209 205 204 204 206 209 212 215 217 220 222 226 231 237 242 243 243 242 243 243 243 244 245 246 247 248 248 248 247 247 247 246 246 246 246 246 246 247 247 247 248 249 251 255 259 265 271 277 280 280 281 281 279 274 265 248 228 210 199 198 201 206 211 215 219 220 214 209 215 223 225 218 205 189 180 180 188 198 205 207 202 190 173 164 165 178
210 207 207 208 211 213 215 217 219 220 223 226 232 238 243 245 245 244 244 244 244 244 245 247 248 248 248 247 246 246 245 245 245 245 245 245 246 246 246 247 248 250 253 257 261 266 271 277 280 280 279 277 273 266 256 241 225 213 206 205 207 212 218 224 229 233 233 228 229 233 237 238 236 231 221 209 200 196 195 195 195 190 181 175 175 184
213 210 210 211 214 217 220 221 221 221 223 226 232 239 244 246 246 246 245 245 245 245 246 247 248 248 247 247 246 245 244 244 244 244 244 245 245 246 246 248 250 252 256 259 262 265 270 275 276 275 272 269 263 255 245 233 222 214 210 210 213 218 223 229 235 239 243 243 243 243 243 243 244 243 241 237 233 229 224 215 208 205 205 205 206 209
216 214 213 215 218 221 224 225 224 223 223 227 233 239 244 246 247 246 246 246 246 246 246 247 248 248 247 246 246 245 244 243 243 243 243 244 245 246 247 249 251 254 257 258 259 262 267 270 269 266 262 256 250 242 233 224 217 212 210 212 215 219 224 230 235 240 244 247 248 247 246 245 245 246 247 246 246 246 246 242 235 229 229 231 234 237
219 217 217 219 221 225 227 227 226 224 223 227 233 240 244 246 246 246 246 246 247 247 248 249 249 249 248 248 247 246 245 243 242 242 243 245 245 246 247 250 253 256 257 255 255 258 261 262 259 254 248 241 234 228 222 216 212 209 209 211 215 219 223 228 233 238 242 245 248 248 248 245 244 245 248 251 252 252 252 252 249 245 243 244 247 250
220 220 220 221 224 229 231 230 228 225 225 229 234 239 243 245 246 246 246 246 248 250 252 252 251 250 250 249 248 246 245 245 245 245 246 247 246 246 247 250 254 256 255 252 252 253 254 252 247 240 233 226 220 216 213 210 207 206 206 209 214 218 223 227 232 237 241 245 249 252 253 250 245 243 247 254 259 259 258 257 257 255 253 252 253 256
219 219 220 223 227 231 233 232 230 229 229 232 235 238 241 243 245 247 248 250 252 254 255 256 255 252 249 248 248 247 246 248 249 249 248 246 245 245 247 251 253 254 252 249 248 247 245 240 234 226 219 214 210 207 205 204 202 202 203 207 212 218 223 228 234 239 244 249 255 260 263 260 254 249 250 257 264 267 266 265 264 263 261 260 260 261
218 218 219 222 228 232 233 231 230 231 233 235 236 237 238 240 243 246 249 253 256 258 259 259 257 254 250 247 247 247 248 249 249 248 247 245 244 245 247 251 252 251 248 245 241 238 234 228 221 214 208 205 202 201 200 199 198 198 199 203 208 215 223 230 236 242 247 252 258 264 268 268 265 261 260 262 267 271 273 273 272 271 269 268 266 265
217 218 218 222 227 230 230 228 228 230 234 237 237 237 237 239 240 243 248 252 256 260 261 259 257 254 251 249 248 248 249 249 249 247 245 245 245 246 248 249 249 247 244 239 232 226 223 218 212 206 202 199 198 197 197 198 198 199 200 201 206 213 223 232 239 245 249 254 259 264 268 269 269 269 269 271 272 275 277 279 280 279 278 277 276 274
217 218 219 223 226 228 227 226 227 231 235 238 240 241 240 240 240 242 245 249 252 255 257 256 253 251 251 250 250 250 250 249 248 248 247 248 249 250 249 247 246 244 240 232 223 218 215 212 206 201 198 196 195 195 196 198 201 202 203 203 206 215 227 238 245 249 251 255 259 263 266 268 269 271 273 276 280 283 285 286 287 286 286 286 285 285
217 218 219 222 224 225 224 224 226 231 236 240 243 243 241 240 240 241 243 246 249 252 254 253 250 248 248 249 250 251 250 248 247 248 250 252 252 252 250 246 243 241 236 225 216 212 211 210 205 200 197 195 194 194 196 199 203 206 207 208 210 217 228 239 247 250 253 255 258 261 264 267 269 272 275 279 284 289 292 292 291 290 289 289 289 290
218 218 219 222 223 223 222 223 226 230 236 240 243 243 242 240 240 241 243 246 249 251 251 248 245 244 246 249 250 249 247 245 245 247 249 250 250 250 248 242 237 234 229 218 209 206 208 209 206 202 198 198 198 198 200 203 207 211 213 213 213 215 221 231 240 247 252 255 258 260 264 268 271 273 276 281 286 291 294 294 292 290 288 288 288 288
219 219 221 222 223 222 223 225 227 231 235 240 243 244 243 242 241 241 243 245 247 249 249 247 244 242 244 247 248 247 245 242 243 245 245 244 244 245 243 237 230 225 221 214 207 204 205 207 206 204 202 204 206 206 207 209 212 215 217 217 214 213 215 222 233 243 251 256 260 262 266 269 272 275 278 282 288 292 294 293 291 288 286 286 285 285
220 221 222 222 222 223 225 228 230 231 235 239 243 245 244 243 241 241 242 245 248 250 250 249 247 246 246 245 246 247 245 240 238 240 239 236 236 238 236 231 225 221 216 211 207 204 205 206 206 205 207 211 214 214 214 215 216 217 218 217 214 212 214 220 231 243 253 259 263 266 269 272 275 278 281 285 289 292 293 292 291 288 287 285 285 284
220 221 223 223 224 226 229 232 233 233 236 239 243 245 244 242 240 240 243 246 249 251 250 249 250 251 251 248 247 247 245 239 235 233 231 229 229 229 227 222 218 215 211 208 206 205 205 206 206 207 212 217 219 219 218 218 218 217 216 214 213 212 215 222 234 246 257 263 266 269 271 275 278 281 284 287 290 291 292 291 290 289 287 286 285 285
221 222 224 225 227 230 233 235 236 237 239 242 245 245 243 241 241 242 245 249 251 252 251 250 250 250 251 249 247 245 241 236 230 226 225 223 222 221 219 213 209 209 207 206 205 205 205 206 207 210 214 218 219 218 217 217 216 215 214 213 212 214 219 227 238 250 259 265 268 271 274 276 279 282 284 286 288 289 289 289 289 288 287 286 286 285
222 225 227 230 231 233 235 237 239 240 243 245 246 244 242 241 242 245 248 250 251 251 250 247 246 246 247 245 243 240 236 230 223 220 220 218 216 213 211 205 203 204 205 204 203 203 204 205 207 211 213 214 214 213 213 213 212 212 211 212 213 217 222 232 243 254 262 267 270 272 275 277 279 281 283 284 285 286 286 286 286 286 285 285 284 284
225 228 231 233 235 236 238 240 242 244 246 247 246 243 242 242 245 248 250 251 251 249 246 243 242 242 242 240 236 233 229 224 219 216 216 212 210 207 204 201 200 201 202 203 202 202 203 204 207 209 209 209 208 208 209 209 209 209 210 212 215 220 227 237 248 258 264 268 271 273 275 277 278 280 281 281 282 282 282 282 282 283 283 283 283 283
228 232 234 236 237 239 241 243 245 247 248 248 246 244 245 247 250 252 253 252 251 249 246 243 240 238 234 230 227 224 221 218 216 214 214 209 206 205 201 198 198 199 200 201 202 202 203 205 207 208 208 207 206 206 206 207 208 210 212 215 219 225 233 244 253 261 265 268 270 272 274 275 276 277 278 278 278 278 278 278 278 279 279 279 279 279
231 234 236 237 239 240 242 244 246 247 247 245 243 243 245 249 252 253 252 252 250 247 243 238 232 227 223 219 216 214 214 212 210 209 211 209 207 203 200 197 197 198 199 201 201 202 204 206 208 210 211 210 208 207 207 209 212 215 218 221 225 232 241 250 257 262 265 267 269 270 272 272 273 274 274 274 273 273 273 272 272 272 272 272 273 273
231 233 235 236 238 240 242 244 245 245 243 241 239 240 243 247 249 250 249 248 245 240 233 226 219 215 213 210 209 208 208 208 207 207 208 209 206 202 200 197 197 198 198 200 201 203 205 207 209 212 214 214 212 211 211 214 217 221 224 228 234 241 248 254 258 261 263 265 267 268 270 271 272 272 273 272 272 271 269 268 266 266 266 266 267 267
230 231 231 232 235 238 240 242 242 241 239 238 238 239 242 244 244 245 244 241 235 228 220 214 210 208 208 206 204 204 204 205 205 206 208 208 204 201 200 198 197 197 197 199 200 203 206 208 209 211 213 214 214 214 216 219 223 228 232 236 242 248 253 257 259 261 262 264 266 268 270 272 273 274 275 275 274 273 271 270 268 267 266 266 266 267
227 226 226 227 230 234 237 238 238 236 236 236 238 240 240 239 239 239 236 230 224 217 211 208 205 204 204 203 202 202 202 201 202 204 206 206 203 201 199 198 197 196 197 198 200 203 206 207 208 208 210 211 213 216 220 224 229 233 238 243 247 252 255 258 260 262 264 265 268 270 272 273 275 276 277 278 279 280 281 282 283 283 283 283 282 281
224 224 225 226 228 230 232 233 232 231 232 234 236 237 236 234 233 232 226 221 215 210 207 206 204 201 200 200 201 201 200 200 200 202 204 204 203 202 200 199 197 196 196 197 200 202 205 206 206 207 208 211 214 219 224 229 234 238 242 246 250 253 255 258 260 262 264 266 268 270 272 274 275 277 279 281 284 286 289 291 293 294 295 295 296 295
225 227 229 229 229 228 227 227 227 227 228 230 231 231 229 227 227 225 220 214 208 205 204 205 204 202 200 199 198 197 197 198 200 201 202 202 203 203 202 200 198 197 197 197 199 201 204 206 207 208 210 214 217 222 228 233 237 241 244 247 249 251 254 256 259 261 263 266 268 270 272 274 276 278 281 284 286 288 290 292 293 295 295 296 297 297
226 228 229 229 227 224 223 223 224 224 223 223 223 222 220 219 218 217 213 209 205 203 202 202 203 202 200 196 193 193 195 198 200 202 202 202 202 202 201 200 200 199 198 198 198 200 203 207 210 212 214 217 221 225 230 235 239 241 244 246 248 250 252 255 257 260 263 265 267 270 272 275 277 280 282 284 286 287 288 289 291 292 292 293 293 292
222 223 223 221 218 216 216 217 218 217 216 215 213 212 209 208 208 208 207 206 205 204 204 203 202 201 199 194 190 191 195 199 201 202 202 202 202 200 200 200 200 200 199 199 199 200 202 206 210 213 216 219 222 226 230 234 238 241 243 245 247 250 252 255 257 260 262 265 268 270 272 275 277 279 281 282 283 284 285 286 287 287 288 288 287 286
218 216 214 211 210 210 210 211 212 211 210 208 205 202 200 200 200 200 201 202 204 205 206 205 203 201 199 198 196 195 197 199 200 201 202 202 201 200 199 200 201 201 201 201 202 203 205 207 210 212 216 219 223 226 229 233 237 240 243 245 247 250 252 254 257 260 262 265 267 269 271 272 274 276 277 278 279 280 281 282 282 283 283 283 283 283
214 211 208 207 207 208 208 210 210 209 205 201 197 195 194 194 194 194 194 196 198 201 203 203 201 198 196 198 201 203 202 199 199 200 201 202 201 199 199 200 201 201 202 203 205 207 209 210 211 213 215 218 222 225 228 232 236 239 242 244 246 249 251 253 256 258 261 263 264 266 267 269 271 272 273 275 276 277 278 278 279 280 280 280 281 281
210 207 205 205 206 207 208 209 208 204 198 193 191 190 190 189 189 189 188 189 191 192 193 197 197 196 195 196 199 202 200 198 198 198 199 200 200 199 199 200 201 201 202 204 207 210 213 214 215 216 217 219 222 226 228 231 234 237 240 242 244 246 249 251 253 256 258 260 262 263 265 266 268 269 271 272 273 274 275 276 276 277 278 279 279 279
206 204 203 204 205 205 205 202 199 195 190 187 186 186 186 186 186 185 185 186 186 186 187 190 193 196 196 196 197 197 196 196 197 198 199 200 200 199 199 200 201 202 204 206 208 211 213 216 217 219 220 222 224 226 228 231 233 236 238 240 242 244 247 249 251 253 255 257 259 261 263 264 266 267 268 270 271 272 273 274 275 276 277 278 278 279
203 202 202 202 200 198 195 192 189 186 184 183 183 184 183 183 183 183 183 183 182 182 183 185 188 192 195 196 196 196 196 197 198 198 199 200 199 199 200 201 202 203 205 207 210 212 213 215 217 219 222 223 225 227 228 230 232 234 237 239 241 243 245 247 249 251 254 256 258 260 261 263 264 265 267 268 269 270 271 273 274 275 276 277 278 279
200 199 199 197 193 189 186 184 182 181 181 181 181 181 180 179 179 179 180 180 180 180 181 182 183 186 189 192 194 196 197 198 199 199 200 199 199 199 201 202 203 205 206 209 211 213 214 215 217 219 222 224 226 228 229 230 232 234 236 238 240 242 244 246 248 251 253 255 257 259 260 261 263 264 266 267 268 269 271 272 273 274 275 277 278 279
196 194 191 188 185 182 180 178 177 178 178 178 178 177 176 176 175 176 176 177 178 180 181 182 183 184 185 187 189 191 194 196 198 199 199 198 198 198 200 202 204 206 207 209 212 214 216 217 219 220 222 224 227 229 230 231 232 234 236 238 239 241 243 245 248 250 252 254 255 257 258 260 261 263 264 266 267 268 270 271 272 274 275 276 278 279
189 186 182 180 178 176 175 174 174 174 175 175 175 174 173 173 173 173 173 174 176 179 181 183 184 185 185 186 187 188 190 192 195 196 197 197 197 197 198 200 203 205 207 208 210 213 215 218 221 223 224 226 228 229 230 231 232 234 236 237 239 240 242 244 246 247 249 251 253 255 256 258 259 260 262 264 265 267 268 270 271 273 275 276 278 280
182 179 176 174 173 173 173 172 172 172 173 173 173 172 172 171 171 171 172 173 174 177 179 182 184 185 186 187 188 189 189 191 192 194 195 195 196 197 198 199 201 204 206 208 209 211 214 216 219 222 225 227 228 228 228 230 231 232 234 236 237 239 240 241 242 244 246 248 249 251 253 255 256 258 259 261 263 264 266 269 271 273 274 276 277 279
175 173 171 170 170 170 170 170 170 171 172 172 172 172 172 172 171 171 171 172 173 175 178 180 182 184 185 186 188 189 189 190 191 192 193 194 195 196 198 198 200 201 204 206 208 211 212 214 216 218 220 222 223 225 226 228 229 230 232 234 235 237 237 238 239 241 243 246 248 249 251 253 255 256 258 260 262 264 266 268 271 273 275 276 276 277
170 168 167 167 167 167 167 168 169 170 171 172 172 172 172 172 172 172 171 172 173 174 177 179 180 182 183 184 185 186 188 189 190 191 192 193 194 196 197 199 200 201 202 204 207 209 211 213 214 216 217 218 219 221 224 226 228 229 230 232 234 236 237 238 239 240 242 244 247 249 251 252 254 256 258 260 262 264 267 269 270 272 273 275 276 276
167 166 165 164 164 165 166 168 169 170 170 171 171 170 170 171 172 172 173 173 173 174 176 178 180 181 182 182 183 184 185 187 188 190 191 193 194 195 197 198 200 201 202 204 206 208 210 212 213 214 215 216 217 219 221 223 225 227 229 231 233 235 236 238 240 241 242 244 246 249 251 253 254 257 259 261 263 265 267 269 270 270 270 271 273 275
164 163 162 162 163 164 166 167 168 169 169 169 168 168 168 169 170 172 173 174 174 175 176 178 180 182 183 183 183 183 184 185 187 189 190 192 194 195 197 198 200 201 202 203 205 207 209 210 211 212 214 215 216 218 220 221 222 224 226 229 231 233 234 237 239 241 242 243 246 248 250 252 255 258 260 262 264 266 267 269 269 269 269 269 270 271
161 161 161 162 163 164 166 166 167 167 166 166 166 165 165 166 168 170 173 174 175 176 178 179 180 181 183 184 184 184 183 184 186 188 190 192 193 195 197 198 200 201 202 204 205 206 206 207 208 210 214 215 216 217 218 218 219 221 224 228 230 233 235 238 239 240 241 243 245 247 250 252 255 258 261 263 265 266 267 267 268 268 269 269 268 268
160 161 161 162 163 164 165 165 165 164 164 164 164 164 164 165 166 168 171 174 175 176 178 180 182 182 182 183 184 184 184 185 186 188 189 191 193 195 196 198 199 200 201 202 204 205 205 204 205 208 210 213 216 218 218 218 218 220 223 227 229 231 234 237 238 240 240 242 245 247 250 253 256 258 260 262 263 264 265 266 266 267 268 269 268 268
162 162 162 163 163 163 163 163 163 162 162 163 163 164 165 165 166 167 170 173 175 177 178 180 181 182 183 183 184 184 185 185 186 187 189 190 191 193 195 197 198 199 200 201 202 203 204 204 206 207 209 211 214 217 219 219 219 220 223 226 228 230 233 235 237 239 241 242 245 247 251 254 257 258 259 261 261 262 265 266 267 268 268 269 269 269
164 164 163 163 163 163 162 162 162 162 163 163 164 165 165 167 168 169 170 173 176 178 178 179 180 181 181 181 182 183 184 185 185 186 187 188 190 191 192 194 195 196 198 199 200 201 202 204 205 208 209 211 213 215 218 220 221 222 224 227 229 231 232 235 237 239 241 242 244 248 251 253 255 257 260 263 264 264 265 266 267 269 269 269 269 270
166 165 165 164 163 163 162 162 163 164 164 165 164 165 166 168 170 171 172 174 176 178 180 181 181 181 180 180 180 181 182 182 183 185 186 187 188 189 190 191 192 193 194 195 196 198 200 202 205 207 209 211 212 215 218 221 222 224 226 228 231 233 235 237 239 241 241 242 244 247 249 251 253 256 260 264 266 266 266 265 266 267 268 268 269 269
167 166 166 165 164 164 163 164 164 165 166 166 166 165 166 168 170 173 175 176 178 179 181 182 182 181 180 179 178 178 179 180 181 182 184 185 186 187 188 189 190 191 191 192 193 195 196 198 202 206 209 210 211 213 218 222 225 227 228 231 234 237 240 242 244 245 245 245 246 248 249 251 254 257 260 263 265 267 268 267 265 265 266 266 267 268
167 166 166 166 165 165 165 165 166 166 167 167 168 168 168 169 170 173 175 177 178 180 180 181 181 180 179 178 177 176 177 178 179 180 181 182 184 185 186 187 188 189 190 190 192 193 195 196 199 203 209 213 214 215 219 225 229 232 233 235 238 241 243 246 249 250 251 251 251 252 252 252 254 256 258 260 263 266 270 271 270 268 267 266 266 268
Height
1466 1467 1469 1472 1474 1477 1479 1481 1483 1484 1485 1486 1488 1489 1490 1490 1490 1490 1491 1492 1492 1492 1492 1493 1493 1494 1495 1495 1496 1496 1497 1497 1498 1499 1499 1499 1499 1499 1499 1499 1499 1499 1500 1500 1500 1500 1501 1501 1501 1501 1500 1500 1499 1499 1498 1498 1498 1498 1497 1497 1497 1497 1497 1497 1497 1498 1498 1499 1498 1498 1497 1498 1498 1498 1499 1499 1499 1498 1498 1498 1498 1499 1499 1499 1499 1500
1464 1466 1467 1470 1472 1475 1477 1479 1481 1482 1483 1484 1486 1487 1488 1488 1488 1488 1489 1489 1490 1490 1491 1491 1492 1492 1493 1493 1494 1495 1495 1496 1497 1497 1497 1497 1497 1497 1497 1497 1497 1498 1498 1498 1498 1498 1499 1499 1499 1499 1498 1498 1497 1497 1497 1497 1497 1497 1497 1497 1497 1497 1497 1497 1497 1497 1498 1498 1498 1498 1498 1497 1497 1498 1498 1498 1498 1498 1498 1498 1498 1498 1498 1499 1499 1499
1462 1464 1466 1468 1471 1473 1475 1477 1478 1480 1481 1483 1484 1485 1486 1486 1486 1486 1487 1487 1488 1488 1488 1489 1490 1490 1491 1492 1492 1493 1493 1494 1494 1495 1495 1495 1495 1495 1495 1496 1496 1496 1496 1496 1497 1497 1497 1498 1498 1497 1497 1496 1496 1496 1496 1495 1496 1496 1496 1496 1496 1496 1496 1496 1497 1497 1497 1498 1498 1498 1498 1498 1497 1497 1497 1497 1497 1498 1498 1498 1498 1498 1498 1498 1498 1498
1461 1462 1464 1466 1468 1471 1472 1474 1476 1477 1479 1481 1482 1483 1484 1483 1484 1484 1485 1485 1486 1486 1487 1487 1488 1488 1489 1490 1490 1491 1491 1492 1492 1493 1493 1493 1493 1493 1493 1494 1494 1494 1494 1494 1495 1495 1496 1497 1497 1496 1495 1495 1494 1494 1494 1494 1494 1495 1495 1495 1495 1495 1495 1496 1496 1496 1497 1497 1497 1497 1497 1497 1497 1497 1497 1497 1497 1497 1497 1498 1498 1498 1498 1498 1498 1498
1459 1460 1462 1464 1466 1468 1470 1472 1473 1475 1477 1479 1481 1482 1482 1482 1482 1482 1483 1483 1484 1484 1485 1485 1486 1486 1487 1488 1488 1489 1489 1490 1490 1490 1491 1491 1491 1491 1492 1492 1492 1492 1492 1492 1493 1493 1494 1495 1495 1494 1493 1493 1493 1493 1493 1493 1493 1493 1494 1494 1494 1494 1495 1495 1495 1496 1496 1496 1497 1497 1497 1497 1497 1497 1497 1497 1497 1497 1497 1497 1498 1498 1498 1498 1498 1498
1457 1458 1460 1462 1464 1466 1467 1469 1471 1472 1475 1477 1478 1479 1479 1480 1480 1481 1481 1482 1482 1482 1483 1483 1484 1484 1485 1486 1486 1487 1487 1487 1488 1488 1488 1489 1489 1489 1489 1489 1490 1490 1490 1491 1491 1492 1492 1492 1492 1492 1492 1492 1492 1492 1492 1492 1492 1492 1492 1493 1493 1493 1494 1494 1494 1494 1495 1495 1496 1497 1497 1497 1497 1497 1497 1497 1497 1497 1497 1497 1497 1498 1498 1498 1498 1498
1455 1455 1457 1459 1461 1463 1465 1467 1468 1470 1472 1474 1476 1477 1477 1478 1478 1479 1479 1480 1480 1481 1481 1482 1482 1482 1483 1484 1484 1485 1485 1485 1486 1486 1486 1487 1487 1487 1487 1487 1487 1488 1488 1489 1489 1490 1490 1491 1491 1491 1491 1491 1490 1490 1490 1490 1491 1491 1491 1492 1492 1492 1493 1493 1493 1493 1494 1494 1495 1496 1496 1496 1496 1496 1496 1497 1497 1497 1497 1497 1497 1497 1497 1497 1497 1497
1452 1453 1455 1457 1458 1461 1462 1464 1465 1467 1469 1471 1473 1475 1475 1476 1476 1477 1477 1478 1479 1479 1479 1480 1480 1481 1482 1482 1482 1483 1483 1483 1484 1484 1484 1484 1484 1485 1485 1485 1486 1486 1487 1487 1487 1488 1488 1489 1489 1489 1489 1489 1489 1489 1489 1489 1489 1490 1490 1491 1491 1492 1492 1492 1493 1493 1493 1494 1494 1495 1495 1495 1495 1495 1495 1496 1496 1496 1496 1497 1497 1497 1497 1497 1497 1496
1449 1450 1452 1454 1456 1458 1460 1461 1462 1464 1466 1469 1471 1472 1473 1473 1474 1475 1476 1476 1477 1477 1477 1478 1478 1479 1480 1480 1480 1481 1481 1481 1482 1482 1482 1482 1482 1483 1483 1483 1484 1484 1484 1485 1486 1486 1487 1487 1487 1487 1488 1488 1488 1488 1488 1488 1488 1488 1489 1490 1490 1491 1491 1492 1492 1492 1492 1493 1493 1493 1493 1493 1494 1494 1495 1495 1495 1495 1495 1496 1496 1496 1496 1496 1496 1496
1446 1448 1450 1452 1454 1456 1458 1459 1460 1462 1464 1466 1468 1469 1470 1471 1472 1472 1473 1474 1474 1475 1475 1476 1477 1477 1477 1478 1478 1479 1479 1479 1480 1480 1480 1480 1481 1481 1481 1481 1482 1482 1483 1483 1484 1485 1485 1486 1486 1486 1487 1487 1487 1487 1487 1487 1487 1487 1488 1489 1489 1490 1491 1491 1491 1492 1492 1492 1492 1492 1492 1492 1493 1493 1494 1494 1494 1494 1494 1494 1495 1495 1495 1495 1495 1495
1444 1446 1447 1449 1452 1454 1457 1458 1459 1460 1462 1464 1466 1467 1467 1468 1469 1470 1470 1471 1472 1472 1473 1474 1474 1475 1475 1476 1476 1476 1477 1477 1478 1478 1478 1478 1478 1479 1479 1479 1480 1480 1481 1482 1482 1483 1483 1484 1485 1485 1486 1486 1486 1486 1486 1486 1487 1487 1487 1488 1488 1489 1490 1490 1491 1491 1491 1491 1491 1492 1492 1492 1492 1492 1492 1493 1493 1493 1493 1493 1493 1494 1494 1494 1494 1494
1441 1443 1445 1447 1449 1452 1454 1456 1457 1459 1460 1462 1462 1463 1464 1465 1466 1467 1468 1468 1469 1470 1471 1471 1472 1473 1473 1474 1474 1474 1475 1475 1476 1476 1476 1476 1477 1477 1477 1477 1478 1479 1479 1480 1481 1482 1482 1482 1483 1484 1484 1485 1485 1485 1485 1485 1486 1486 1487 1487 1487 1488 1489 1489 1489 1490 1490 1490 1490 1491 1491 1491 1491 1492 1492 1492 1492 1492 1492 1492 1493 1493 1493 1493 1493 1493
1438 1440 1442 1443 1446 1449 1452 1453 1455 1456 1457 1458 1459 1460 1461 1462 1464 1465 1466 1466 1467 1467 1468 1469 1470 1471 1472 1472 1472 1473 1473 1473 1474 1474 1475 1475 1475 1475 1476 1476 1476 1477 1477 1478 1479 1480 1481 1481 1482 1482 1483 1484 1484 1484 1484 1485 1485 1485 1486 1486 1487 1487 1488 1488 1488 1489 1489 1489 1490 1490 1490 1490 1491 1491 1491 1491 1491 1491 1491 1491 1492 1492 1492 1492 1492 1492
1435 1437 1438 1441 1443 1446 1448 1450 1452 1453 1454 1456 1457 1458 1459 1460 1462 1463 1464 1464 1465 1465 1467 1467 1468 1469 1470 1470 1471 1471 1472 1472 1472 1473 1473 1473 1474 1474 1474 1474 1475 1475 1476 1477 1477 1478 1479 1480 1481 1481 1482 1482 1483 1483 1483 1484 1484 1484 1485 1485 1486 1486 1487 1487 1487 1488 1488 1489 1489 1489 1489 1490 1490 1490 1490 1490 1490 1490 1490 1490 1490 1490 1490 1490 1490 1490
1431 1433 1435 1437 1440 1442 1445 1447 1448 1450 1452 1454 1456 1457 1457 1458 1459 1460 1461 1462 1462 1463 1464 1465 1466 1467 1467 1468 1469 1469 1470 1470 1471 1471 1472 1472 1472 1472 1473 1473 1473 1474 1474 1475 1476 1477 1478 1478 1479 1480 1481 1482 1482 1482 1482 1483 1483 1483 1484 1484 1485 1485 1486 1486 1487 1487 1487 1488 1488 1488 1489 1489 1489 1489 1489 1489 1489 1489 1489 1489 1489 1489 1489 1489 1489 1489
1428 1430 1432 1434 1437 1439 1441 1443 1446 1448 1451 1452 1453 1454 1455 1455 1456 1457 1458 1459 1459 1461 1462 1463 1464 1465 1465 1466 1466 1467 1467 1468 1469 1469 1470 1470 1470 1470 1471 1471 1472 1472 1473 1474 1475 1476 1477 1477 1478 1479 1480 1480 1481 1481 1482 1482 1482 1482 1483 1483 1484 1484 1485 1485 1486 1486 1487 1487 1487 1487 1488 1488 1488 1488 1488 1488 1488 1488 1488 1488 1488 1488 1488 1488 1488 1488
1426 1428 1430 1432 1434 1436 1438 1441 1443 1446 1448 1450 1451 1451 1452 1452 1453 1454 1455 1456 1457 1458 1459 1460 1461 1462 1462 1463 1463 1464 1465 1466 1467 1467 1468 1468 1468 1468 1469 1470 1470 1471 1471 1472 1473 1474 1476 1476 1477 1478 1479 1479 1480 1480 1481 1481 1481 1482 1482 1482 1483 1483 1484 1484 1485 1485 1486 1486 1486 1487 1487 1487 1487 1487 1487 1487 1487 1487 1488 1488 1488 1488 1487 1487 1487 1487
1423 1425 1427 1429 1432 1433 1436 1438 1440 1443 1445 1447 1448 1449 1450 1450 1451 1451 1452 1453 1454 1455 1456 1457 1457 1458 1459 1459 1460 1461 1462 1464 1465 1465 1466 1466 1466 1466 1467 1467 1468 1469 1470 1471 1472 1473 1474 1475 1476 1477 1478 1478 1479 1479 1479 1480 1480 1480 1481 1481 1482 1482 1482 1483 1484 1484 1484 1485 1485 1485 1486 1486 1486 1486 1486 1486 1487 1487 1487 1487 1487 1487 1487 1487 1487 1486
1421 1422 1425 1427 1429 1431 1433 1435 1437 1439 1442 1443 1445 1446 1447 1447 1447 1448 1449 1450 1452 1452 1453 1454 1454 1455 1456 1456 1457 1459 1460 1462 1462 1463 1464 1464 1464 1464 1465 1466 1467 1468 1469 1470 1471 1472 1473 1474 1475 1476 1477 1477 1478 1478 1478 1478 1479 1479 1479 1480 1481 1481 1482 1482 1482 1483 1483 1484 1484 1484 1485 1485 1485 1485 1485 1485 1486 1486 1486 1486 1486 1486 1486 1486 1485 1485
1418 1420 1422 1424 1427 1428 1430 1432 1434 1436 1438 1441 1442 1442 1443 1443 1444 1445 1446 1447 1449 1450 1450 1451 1452 1452 1453 1454 1456 1457 1459 1460 1461 1461 1462 1462 1462 1463 1463 1464 1465 1466 1467 1469 1470 1471 1472 1473 1475 1476 1476 1477 1477 1477 1477 1477 1477 1478 1478 1479 1479 1480 1480 1481 1481 1482 1482 1482 1483 1483 1483 1484 1484 1484 1484 1484 1485 1485 1485 1485 1485 1485 1484 1484 1484 1484
1416 1417 1419 1422 1424 1426 1427 1429 1431 1434 1436 1438 1439 1439 1440 1440 1441 1442 1443 1445 1447 1447 1448 1448 1449 1449 1451 1452 1455 1456 1457 1457 1458 1459 1460 1461 1461 1461 1462 1463 1464 1465 1467 1468 1469 1470 1471 1472 1474 1475 1475 1475 1475 1476 1476 1476 1477 1477 1477 1478 1478 1479 1479 1479 1480 1480 1481 1481 1482 1482 1482 1483 1483 1483 1483 1483 1483 1483 1483 1483 1483 1483 1483 1483 1483 1483
1412 1414 1417 1419 1421 1422 1424 1426 1429 1431 1433 1435 1435 1436 1437 1437 1438 1439 1441 1442 1443 1444 1445 1445 1446 1447 1449 1452 1453 1454 1455 1456 1456 1457 1458 1459 1459 1460 1460 1461 1462 1464 1465 1467 1468 1469 1470 1471 1472 1473 1473 1474 1474 1474 1475 1475 1475 1476 1476 1477 1477 1477 1478 1478 1478 1479 1480 1480 1481 1481 1482 1482 1482 1482 1482 1482 1482 1482 1482 1482 1482 1482 1482 1482 1482 1482
1410 1412 1414 1417 1418 1420 1422 1424 1426 1428 1430 1431 1432 1433 1434 1434 1435 1436 1438 1439 1440 1441 1442 1443 1444 1446 1448 1450 1452 1452 1453 1454 1454 1456 1457 1457 1457 1458 1459 1460 1461 1462 1464 1465 1466 1467 1468 1469 1470 1471 1472 1472 1473 1473 1473 1474 1474 1474 1475 1475 1476 1476 1477 1477 1477 1478 1479 1479 1480 1480 1480 1481 1481 1481 1481 1481 1481 1481 1481 1481 1481 1481 1481 1481 1480 1480
1407 1409 1412 1413 1415 1417 1419 1421 1423 1425 1427 1428 1429 1430 1431 1432 1432 1433 1435 1436 1437 1438 1440 1442 1444 1445 1447 1448 1450 1450 1451 1452 1452 1454 1455 1455 1455 1456 1457 1458 1460 1461 1462 1464 1465 1466 1467 1468 1469 1470 1470 1471 1472 1472 1472 1472 1473 1473 1474 1474 1474 1475 1475 1476 1476 1477 1477 1478 1478 1479 1479 1479 1480 1480 1480 1480 1480 1480 1480 1480 1480 1480 1479 1479 1479 1479
1404 1406 1407 1410 1412 1414 1416 1418 1420 1422 1423 1425 1426 1427 1427 1428 1429 1431 1432 1434 1435 1437 1438 1440 1442 1443 1444 1446 1447 1448 1449 1449 1451 1452 1452 1453 1454 1455 1456 1457 1458 1460 1461 1462 1464 1465 1466 1467 1468 1469 1469 1470 1470 1471 1471 1471 1472 1472 1472 1473 1473 1473 1474 1475 1475 1476 1477 1477 1477 1478 1478 1478 1478 1478 1478 1478 1478 1479 1479 1478 1478 1478 1478 1478 1477 1477
1400 1402 1404 1407 1409 1411 1413 1415 1417 1418 1420 1421 1422 1422 1423 1424 1426 1428 1429 1431 1432 1434 1436 1438 1439 1441 1442 1443 1445 1446 1446 1447 1448 1449 1450 1451 1452 1453 1455 1456 1457 1458 1460 1461 1462 1464 1465 1466 1467 1468 1468 1469 1469 1469 1470 1470 1470 1471 1471 1471 1472 1472 1473 1473 1474 1475 1475 1476 1476 1476 1477 1477 1477 1477 1477 1477 1477 1477 1477 1477 1477 1477 1476 1476 1476 1476
1398 1400 1402 1404 1406 1408 1410 1412 1414 1415 1416 1417 1418 1418 1419 1421 1423 1424 1426 1427 1429 1431 1433 1435 1437 1438 1440 1441 1442 1443 1444 1445 1447 1447 1449 1450 1451 1452 1453 1454 1456 1457 1458 1460 1461 1462 1464 1465 1466 1467 1467 1467 1468 1468 1468 1468 1469 1469 1469 1470 1471 1471 1472 1472 1473 1473 1474 1474 1475 1475 1475 1475 1475 1475 1475 1475 1475 1475 1475 1474 1474 1474 1474 1474 1474 1473
1396 1398 1400 1401 1403 1405 1407 1408 1410 1412 1412 1413 1414 1415 1416 1417 1419 1420 1421 1423 1426 1428 1430 1432 1433 1435 1437 1439 1440 1441 1442 1443 1445 1446 1447 1449 1450 1451 1452 1453 1454 1456 1457 1459 1460 1461 1462 1463 1464 1465 1466 1466 1466 1467 1467 1467 1467 1468 1468 1469 1470 1470 1471 1472 1472 1472 1472 1473 1473 1473 1473 1473 1473 1473 1473 1473 1473 1473 1473 1473 1472 1472 1472 1472 1472 1472
1394 1396 1398 1399 1400 1402 1404 1405 1407 1408 1409 1410 1411 1412 1413 1414 1415 1417 1418 1421 1423 1426 1427 1429 1431 1433 1434 1436 1438 1440 1441 1442 1443 1444 1446 1447 1448 1449 1450 1452 1453 1454 1456 1457 1459 1460 1461 1462 1463 1463 1464 1464 1465 1465 1466 1466 1466 1467 1467 1468 1469 1469 1470 1470 1471 1471 1471 1472 1472 1472 1472 1472 1472 1472 1472 1472 1472 1472 1472 1472 1472 1471 1471 1471 1471 1471
1392 1393 1395 1397 1398 1399 1401 1403 1404 1406 1407 1407 1408 1409 1410 1412 1413 1415 1417 1419 1422 1423 1425 1427 1429 1431 1432 1434 1436 1438 1439 1440 1441 1442 1444 1445 1446 1447 1449 1450 1452 1453 1454 1456 1457 1459 1460 1460 1461 1462 1462 1463 1463 1464 1464 1465 1465 1466 1467 1467 1468 1468 1469 1469 1469 1470 1470 1470 1470 1471 1471 1471 1471 1471 1471 1471 1471 1471 1470 1470 1470 1470 1470 1470 1469 1469
1388 1390 1392 1393 1395 1396 1398 1400 1402 1402 1403 1404 1405 1407 1408 1410 1412 1414 1417 1418 1420 1422 1424 1426 1427 1429 1430 1432 1433 1435 1436 1437 1439 1441 1442 1443 1444 1446 1447 1449 1450 1451 1453 1454 1456 1457 1457 1458 1459 1460 1461 1461 1462 1462 1463 1463 1464 1465 1465 1466 1467 1467 1467 1468 1468 1468 1469 1469 1469 1469 1469 1469 1469 1469 1469 1469 1469 1469 1469 1469 1469 1468 1468 1468 1468 1468
1384 1387 1388 1390 1391 1393 1395 1397 1398 1399 1399 1401 1403 1405 1407 1409 1411 1413 1416 1417 1419 1421 1422 1424 1426 1427 1428 1429 1430 1431 1433 1435 1437 1439 1440 1442 1443 1444 1446 1447 1449 1450 1452 1453 1454 1455 1455 1456 1457 1458 1459 1460 1460 1461 1462 1462 1463 1464 1464 1465 1465 1466 1466 1467 1467 1467 1467 1467 1468 1468 1468 1468 1468 1468 1468 1468 1467 1467 1467 1467 1467 1467 1467 1467 1467 1466
1381 1383 1385 1387 1388 1390 1391 1392 1394 1395 1397 1398 1401 1403 1405 1407 1410 1412 1414 1416 1418 1419 1421 1423 1424 1426 1427 1428 1429 1430 1432 1434 1436 1437 1439 1440 1442 1443 1445 1446 1448 1449 1451 1452 1453 1453 1454 1454 1455 1457 1457 1458 1459 1460 1461 1461 1462 1462 1463 1463 1464 1464 1465 1465 1466 1466 1466 1466 1467 1467 1467 1467 1467 1467 1466 1466 1466 1466 1466 1466 1466 1465 1465 1465 1465 1465
1378 1381 1382 1384 1385 1387 1388 1389 1391 1392 1395 1397 1399 1401 1403 1406 1408 1410 1412 1414 1416 1417 1419 1421 1423 1424 1425 1427 1428 1430 1432 1433 1435 1436 1437 1439 1441 1442 1444 1445 1447 1448 1449 1450 1451 1452 1453 1454 1455 1456 1457 1457 1458 1459 1459 1460 1461 1461 1462 1462 1462 1463 1463 1464 1464 1465 1465 1465 1465 1465 1465 1465 1465 1465 1465 1465 1464 1464 1464 1464 1464 1464 1464 1463 1463 1463
1376 1378 1379 1381 1382 1384 1385 1386 1388 1391 1393 1396 1398 1400 1402 1404 1406 1408 1410 1412 1414 1416 1418 1420 1422 1423 1425 1426 1427 1429 1431 1432 1434 1435 1437 1438 1440 1442 1443 1444 1446 1447 1448 1449 1450 1451 1452 1453 1454 1455 1456 1456 1457 1457 1458 1459 1459 1460 1461 1461 1462 1462 1462 1463 1463 1463 1463 1463 1463 1463 1464 1463 1463 1463 1463 1463 1463 1463 1462 1462 1462 1462 1462 1462 1462 1462
1373 1375 1377 1378 1379 1381 1382 1384 1387 1389 1392 1395 1397 1399 1401 1403 1404 1406 1408 1410 1412 1414 1417 1419 1421 1422 1424 1426 1427 1429 1431 1432 1433 1435 1436 1438 1439 1441 1442 1443 1445 1446 1447 1448 1449 1450 1451 1452 1453 1453 1454 1455 1455 1456 1457 1457 1458 1459 1459 1460 1460 1461 1461 1462 1462 1462 1462 1462 1462 1462 1462 1462 1462 1462 1462 1462 1461 1461 1461 1461 1461 1461 1461 1460 1460 1460
1370 1372 1374 1375 1377 1378 1380 1382 1385 1388 1392 1394 1397 1399 1400 1402 1403 1405 1407 1409 1411 1413 1416 1417 1419 1422 1423 1425 1427 1428 1430 1432 1433 1434 1436 1437 1438 1440 1441 1442 1444 1445 1446 1447 1448 1449 1450 1451 1451 1452 1452 1453 1454 1454 1455 1456 1457 1457 1458 1459 1459 1460 1460 1460 1460 1461 1461 1461 1460 1460 1460 1460 1460 1460 1460 1460 1460 1460 1460 1459 1459 1459 1459 1459 1459 1458
1367 1369 1371 1373 1375 1377 1379 1382 1385 1388 1391 1393 1396 1398 1400 1401 1403 1405 1407 1409 1411 1413 1415 1417 1418 1420 1422 1424 1426 1427 1429 1431 1432 1433 1435 1436 1437 1439 1440 1442 1443 1444 1445 1446 1447 1448 1449 1449 1450 1450 1451 1452 1452 1453 1454 1455 1456 1456 1457 1457 1458 1458 1459 1459 1459 1459 1459 1459 1459 1459 1459 1459 1459 1459 1459 1458 1458 1458 1458 1458 1458 1458 1458 1457 1457 1457
1364 1367 1369 1371 1373 1376 1378 1381 1384 1387 1390 1393 1395 1397 1399 1401 1402 1404 1406 1408 1410 1412 1414 1416 1418 1420 1421 1423 1425 1427 1428 1430 1431 1432 1434 1435 1437 1438 1439 1440 1442 1442 1443 1445 1446 1447 1447 1448 1448 1449 1449 1450 1451 1452 1453 1454 1455 1455 1456 1457 1457 1457 1457 1458 1458 1458 1458 1457 1457 1457 1457 1457 1457 1457 1457 1457 1457 1457 1457 1457 1457 1457 1456 1456 1456 1456
1362 1364 1367 1369 1372 1375 1377 1380 1383 1387 1390 1393 1395 1397 1398 1400 1402 1403 1406 1407 1410 1412 1414 1416 1418 1419 1421 1422 1424 1426 1427 1428 1430 1431 1432 1434 1435 1437 1437 1439 1440 1441 1442 1443 1444 1445 1446 1447 1447 1448 1448 1449 1450 1451 1452 1452 1453 1454 1455 1455 1456 1456 1456 1457 1457 1457 1456 1456 1456 1456 1456 1456 1456 1456 1456 1456 1456 1456 1456 1455 1455 1455 1455 1455 1455 1455
1360 1362 1365 1367 1371 1374 1377 1380 1383 1387 1390 1392 1394 1396 1398 1399 1401 1402 1404 1407 1409 1411 1413 1415 1417 1419 1420 1422 1423 1425 1427 1428 1429 1430 1432 1433 1434 1435 1436 1437 1438 1440 1441 1442 1442 1443 1444 1445 1446 1446 1447 1448 1449 1450 1450 1451 1452 1453 1453 1454 1454 1455 1455 1455 1455 1455 1455 1455 1455 1455 1455 1455 1455 1455 1455 1455 1454 1454 1454 1454 1454 1454 1454 1454 1454 1453
1358 1361 1363 1366 1370 1373 1377 1381 1384 1387 1390 1392 1394 1395 1397 1398 1400 1402 1403 1406 1408 1410 1412 1414 1416 1418 1419 1421 1422 1424 1426 1427 1428 1429 1430 1432 1432 1434 1435 1436 1437 1438 1439 1440 1441 1442 1443 1444 1444 1445 1446 1447 1447 1448 1449 1450 1451 1452 1452 1453 1453 1453 1454 1454 1454 1454 1454 1454 1453 1453 1453 1453 1453 1453 1453 1453 1453 1453 1453 1453 1453 1453 1453 1452 1452 1452
1357 1360 1363 1366 1369 1373 1377 1380 1383 1386 1389 1391 1393 1394 1396 1398 1400 1402 1403 1405 1407 1410 1412 1413 1415 1417 1418 1420 1422 1423 1424 1426 1427 1428 1429 1430 1431 1432 1434 1435 1436 1437 1438 1439 1440 1441 1442 1442 1443 1444 1444 1445 1446 1447 1448 1449 1450 1450 1451 1452 1452 1452 1452 1452 1452 1453 1452 1452 1452 1452 1452 1452 1452 1452 1452 1452 1452 1452 1452 1452 1452 1452 1452 1452 1452 1451
1357 1360 1363 1366 1370 1373 1377 1380 1383 1385 1388 1390 1392 1393 1395 1397 1399 1402 1403 1406 1407 1409 1411 1413 1415 1417 1418 1419 1421 1422 1423 1424 1426 1427 1428 1429 1430 1431 1432 1433 1435 1436 1437 1438 1438 1439 1440 1441 1442 1442 1443 1444 1445 1446 1447 1447 1448 1449 1450 1450 1451 1451 1451 1451 1451 1452 1452 1451 1451 1451 1451 1451 1451 1451 1451 1451 1451 1451 1451 1451 1451 1450 1450 1450 1450 1450
1357 1360 1363 1367 1370 1373 1376 1379 1382 1384 1387 1388 1390 1392 1394 1397 1399 1402 1403 1406 1407 1409 1411 1413 1415 1416 1417 1419 1420 1421 1422 1423 1425 1426 1427 1428 1429 1430 1431 1432 1433 1434 1436 1437 1437 1438 1439 1440 1441 1441 1442 1443 1444 1445 1446 1447 1447 1448 1449 1449 1450 1450 1450 1450 1450 1450 1450 1450 1450 1450 1450 1450 1450 1450 1450 1450 1450 1450 1449 1449 1449 1449 1449 1449 1449 1449
1357 1360 1363 1367 1370 1372 1375 1378 1381 1383 1385 1387 1390 1392 1394 1396 1399 1401 1403 1405 1407 1409 1411 1413 1414 1416 1417 1418 1419 1421 1422 1422 1424 1425 1426 1427 1428 1429 1430 1431 1432 1433 1434 1435 1436 1437 1438 1439 1440 1440 1441 1442 1443 1444 1445 1446 1447 1447 1448 1448 1448 1449 1449 1449 1449 1449 1449 1449 1449 1449 1449 1449 1449 1449 1449 1449 1449 1448 1448 1448 1448 1448 1448 1448 1448 1448
1358 1361 1363 1366 1369 1372 1375 1377 1380 1382 1384 1387 1389 1391 1393 1396 1398 1400 1403 1405 1407 1409 1410 1412 1414 1415 1417 1418 1419 1420 1421 1422 1422 1423 1425 1426 1427 1428 1429 1430 1431 1432 1433 1434 1435 1436 1437 1438 1439 1439 1440 1441 1442 1443 1444 1445 1446 1447 1447 1447 1447 1448 1448 1448 1448 1448 1448 1448 1448 1448 1448 1448 1448 1448 1447 1447 1447 1447 1447 1447 1447 1447 1447 1447 1447 1447
1358 1361 1363 1366 1368 1371 1374 1376 1379 1381 1383 1386 1388 1391 1393 1395 1398 1400 1402 1404 1406 1408 1410 1412 1413 1415 1416 1417 1418 1419 1420 1421 1422 1422 1423 1425 1426 1427 1428 1429 1430 1431 1432 1433 1434 1435 1436 1437 1438 1439 1440 1441 1442 1442 1443 1444 1445 1446 1446 1446 1447 1447 1447 1447 1447 1447 1447 1447 1447 1447 1447 1447 1447 1447 1447 1447 1447 1447 1447 1446 1446 1446 1446 1446 1446 1446
1358 1361 1363 1366 1368 1371 1373 1375 1378 1380 1382 1385 1387 1390 1392 1395 1397 1399 1402 1404 1406 1407 1409 1411 1412 1413 1415 1416 1417 1418 1418 1419 1420 1421 1422 1424 1425 1426 1427 1428 1429 1430 1431 1432 1433 1434 1435 1436 1437 1438 1439 1440 1441 1442 1443 1443 1444 1444 1445 1445 1445 1445 1446 1446 1446 1446 1446 1446 1446 1446 1446 1446 1446 1446 1446 1446 1445 1445 1445 1445 1445 1445 1445 1445 1445 1445
1359 1361 1363 1366 1368 1370 1372 1375 1377 1380 1382 1385 1387 1389 1392 1394 1397 1399 1401 1403 1405 1407 1409 1410 1411 1412 1413 1414 1415 1416 1417 1418 1419 1420 1421 1422 1424 1425 1426 1427 1428 1429 1430 1431 1432 1434 1435 1436 1437 1438 1439 1440 1441 1441 1442 1442 1443 1443 1444 1444 1444 1444 1444 1444 1445 1445 1445 1445 1445 1445 1445 1445 1445 1445 1445 1445 1444 1444 1444 1444 1444 1444 1444 1444 1444 1444
1359 1362 1364 1366 1368 1370 1372 1375 1377 1379 1382 1384 1387 1389 1391 1393 1396 1398 1401 1402 1404 1406 1408 1409 1410 1412 1412 1413 1414 1415 1416 1417 1418 1419 1420 1422 1422 1424 1425 1426 1427 1428 1429 1430 1432 1433 1434 1435 1436 1437 1438 1439 1440 1441 1441 1442 1442 1442 1442 1443 1443 1443 1443 1443 1443 1444 1444 1444 1444 1444 1444 1444 1444 1444 1444 1444 1444 1443 1443 1443 1443 1443 1443 1443 1443 1444